Location: De Har
(53.3413°N, 6.6858°E)
Time: 20:40:02
(UTC+00:00)

Cosmos 1536 - Pass Details

Date: 22 April 2026
Orbit: 481 x 502 km, 82.5° (Epoch: 21 May)

Event Time Altitude Azimuth Distance (km) Brightness Sun altitude
Rises 01:41:44 0° 342° (NNW) 2,563 6.8 -18.9°
Reaches altitude 10° 01:43:57 10° 334° (NNW) 1,675 5.7 -18.7°
Enters shadow 01:47:13 36° 271° (W) 789 3.3 -18.4°
